Location: Unspecified
(0.0000°N, 0.0000°E)
Time: 07:29:46
(UTC+00:00)

ISS - Pass Details

Date: 29 April 2017
Orbit: 401 x 409 km, 51.6° (Epoch: 29 April)

Event Time Altitude Azimuth Distance (km) Brightness Sun altitude
Exits shadow 03:53:18 14° 72° (ENE) 1,216 -0.6 -29.9°
Drops below altitude 10° 03:54:00 10° 64° (ENE) 1,453 -0.1 -29.8°
Sets 03:56:14 0° 52° (NE) 2,307 1.0 -29.2°
